Regional Weather Roundup
Issued by NWS New Orleans/Baton Rouge, LA

Current Version | Previous Version | Text Only | Print | Product List | Glossary On
Versions: 1 2 3 4 5 6 7 8 9 10 11 12 13 14 15 16 17 18 19 20 21 22 23 24 25 26 27 28 29 30 31 32 33 34 35 36 37 38 39 40 41 42 43 44 45 46 47 48 49 50
000
ASUS44 KLIX 311411
RWRLIX
NEW ORLEANS REGIONAL WEATHER ROUNDUP
NATIONAL WEATHER SERVICE NEW ORLEANS LA
900 AM CDT SAT JUL 31 2021

NOTE: "FAIR" INDICATES FEW OR NO CLOUDS BELOW 12,000 FEET WITH NO
      SIGNIFICANT WEATHER AND/OR OBSTRUCTIONS TO VISIBILITY.
      SKY/WX - SKY CONDITION AND SIGNIFICANT WEATHER.
      TMP - AIR TEMPERATURE.     DP    - DEWPOINT TEMPERATURE.
      RH  - RELATIVE HUMIDITY.   PRES  - PRESSURE.
      HI  - HEAT INDEX.          WCI   - WIND CHILL INDEX.

*  THESE STATIONS ARE NOT NWS OR FAA STATIONS AND ARE NOT UNDER
   NWS QUALITY CONTROL.

LAZ038-048-061-063-065>067-069-076-077-311500-
SOUTHEAST LOUISIANA

CITY           SKY/WX    TMP DP  RH WIND       PRES   REMARKS
N.O. INTL ARPT PTSUNNY   88  78  72 W9        30.05R HX 101
N.O. DWNTWN HE FAIR      88  78  72 VRB5      30.06S HX 101
N.O. LAKEFRONT MOSUNNY   88  80  77 NW14      30.05R HX 104
RESERVE*       FAIR      85  78  80 NW5       30.06S HX  96
SLIDELL        MOSUNNY   85  78  80 VRB5      30.04R HX  96
BATON ROUGE    SUNNY     83  77  82 NW9       30.06R
BOOTHVILLE*    NOT AVBL
BELLE CHASSE*  PTSUNNY   86  81  85 NW6       30.05R HX 102
BOGALUSA*      FAIR      84  78  80 CALM      30.06R HX  95
GALLIANO*      CLOUDY    79  72  79 CALM      30.07F THUNDER
NEW ROADS*     FAIR      83  79  89 W6        30.07R
GONZALES*      FAIR      86  78  75 N8        30.06R HX  99
HAMMOND*       SUNNY     84  81  89 NW6       30.06R HX  98
HOUMA*         SUNNY     84  81  89 CALM      30.05R HX  98

$$

MSZ070-077-080>082-311500-
SOUTHERN MISSISSIPPI

CITY           SKY/WX    TMP DP  RH WIND       PRES   REMARKS
MCCOMB         SUNNY     86  79  79 NW6       30.07R HX  99
PICAYUNE*      MOSUNNY   82  77  83 CALM      30.05R
GULFPORT       MOSUNNY   86  78  77 NW6       30.03R HX  98
BILOXI         MOSUNNY   85  78  79 CALM      30.03R HX  97
PASCAGOULA     MOSUNNY   86  81  85 CALM      30.05R HX 102

$$

COASTAL OBSERVATIONS
LAKE AND NEARSHORE STATIONS

STATION/POSITION TIME  SKY/WX   TEMP    WIND        PRES    WAVE
                                AIR SEA DIR/SP/G            HT/PER
                 (UTC)          (F)     (DEG/KT/KT) (MB)    (FT/S)
WAVELAND YACHT   1330            87 87  300/  6/  8   N/A
GRAND ISLE       1330            80 90              1018.0
SOUTHWEST PASS   1330            86 84  300/ 11/ 14 1016.5
NEW CANAL        1330            86 90  300/  4/  8 1017.1
SHELL BEACH      1330            84 91  250/  6/  8 1017.8

OFFSHORE STATIONS

STATION/POSITION TIME  SKY/WX   TEMP    WIND        PRES    WAVE
                                AIR SEA DIR/SP/G            HT/PER
                 (UTC)          (F)     (DEG/KT/KT) (MB)    (FT/S)
64 S DAUPHIN ISL 1350            82 86   50/ 16/ 21 1018.2    1/ 3
SW PASS ENTRANCE 1300            85 86                N/A     2/ 3
LA OFFSHORE OIL  1353            83     340/ 12/ 17 1019.1

$$




USA.gov is the U.S. government's official web portal to all federal, state and local government web resources and services.